K3GJ-2 Weather Reports


Display with metric or nautical units.
time (UTC)temp
F
wind
direction
speed
MPH
gust
MPH
rain 1hr
in
rain 24hr
in
rain mn
in
humidity
%
barometer
mb
20200329150142 53 114 0.0 0.0 0.00 0.00 0.00 98 1010.4
20200329143144 53 90 0.0 0.0 0.00 0.00 0.00 98 1010.2
20200329140143 52 90 0.0 0.0 0.00 0.00 0.00 98 1010.3
20200329133142 52 90 0.0 0.0 0.00 0.02 0.00 98 1009.9
20200329130143 52 90 0.0 1.0 0.00 0.08 0.00 98 1009.9
20200329123142 51 90 0.0 1.0 0.00 0.09 0.00 98 1009.7
20200329120144 51 90 0.0 0.0 0.00 0.09 0.00 98 1009.4
20200329113144 51 90 0.0 0.0 0.00 0.12 0.00 98 1009.1
20200329110143 51 90 0.0 0.0 0.00 0.12 0.00 98 1008.7
20200329103143 50 90 0.0 0.0 0.00 0.12 0.00 97 1008.3
20200329100143 50 90 0.0 0.0 0.00 0.12 0.00 97 1008.0
20200329093142 50 90 0.0 0.0 0.00 0.12 0.00 97 1007.9
20200329090141 50 96 1.0 2.0 0.00 0.12 0.00 97 1008.1
20200329083143 50 96 1.0 1.0 0.00 0.12 0.00 97 1008.3
20200329080143 50 96 0.0 1.0 0.00 0.12 0.00 97 1008.5
20200329073142 51 96 0.0 1.0 0.00 0.12 0.00 97 1009.0
20200329070141 51 96 0.0 0.0 0.00 0.12 0.00 97 1008.9
20200329063142 51 96 0.0 1.0 0.00 0.12 0.00 97 1008.9
20200329060143 51 96 1.0 2.0 0.00 0.13 0.00 97 1008.6
20200329053143 51 96 0.0 0.0 0.00 0.19 0.00 97 1009.1
20200329050142 51 96 0.0 0.0 0.00 0.19 0.00 97 1008.9
20200329043143 51 96 0.0 0.0 0.00 0.19 0.00 96 1009.0
20200329040143 51 96 0.0 1.0 0.00 0.19 0.00 96 1009.0
20200329033142 51 90 0.0 1.0 0.00 0.19 0.19 96 1009.5
20200329030143 52 84 2.0 3.0 0.00 0.19 0.19 96 1009.2
20200329023142 52 92 3.0 5.0 0.00 0.19 0.19 95 1009.4
20200329020142 53 60 1.0 2.0 0.00 0.19 0.19 95 1010.3
20200329013142 54 71 1.0 2.0 0.00 0.19 0.19 94 1009.6
20200329010143 54 85 0.0 1.0 0.00 0.19 0.19 93 1009.2
20200329003142 55 123 1.0 2.0 0.00 0.19 0.19 92 1009.3
20200329000143 56 84 0.0 1.0 0.00 0.19 0.19 89 1009.5
20200328233144 57 84 1.0 2.0 0.00 0.19 0.19 87 1009.7
20200328230156 59 92 1.0 2.0 0.00 0.19 0.19 83 1009.2
20200328223142 61 98 0.0 1.0 0.00 0.19 0.19 83 1008.6
20200328220143 62 142 0.0 1.0 0.00 0.19 0.19 82 1008.1
20200328213143 62 142 0.0 1.0 0.00 0.19 0.19 80 1007.4
20200328210143 62 142 0.0 1.0 0.00 0.19 0.19 79 1007.4
20200328203143 61 182 2.0 3.0 0.00 0.19 0.19 79 1007.3
20200328200143 61 153 1.0 3.0 0.00 0.19 0.19 77 1008.1
20200328193143 62 97 1.0 2.0 0.00 0.19 0.19 77 1008.3
20200328190144 61 169 2.0 3.0 0.00 0.19 0.19 79 1008.5
20200328183143 60 191 1.0 2.0 0.00 0.19 0.19 81 1009.2
20200328180142 58 174 1.0 2.0 0.00 0.19 0.19 85 1009.6
20200328173143 57 227 0.0 1.0 0.00 0.19 0.19 87 1009.9
20200328170143 56 135 1.0 2.0 0.00 0.19 0.19 89 1009.8
20200328160143 55 154 1.0 3.0 0.00 0.19 0.19 95 1010.0
20200328153143 54 162 1.0 2.0 0.00 0.19 0.19 96 1010.4